owner,sensor,date,latitude,longitude,vertical_datum,sea_water_temperature,qcFlag 
DISL,ioos:station:DISL:MBLA:1,2010-02-03T00:03:00Z,30.4367,-88.0117,0.5,9.38,2 
DISL,ioos:station:DISL:MBLA:1,2010-02-03T00:05:00Z,30.4367,-88.0117,0.5,9.74,2 
DISL,ioos:station:DISL:MBLA:1,2010-02-03T00:07:00Z,30.4367,-88.0117,0.5,9.74,2 
DISL,ioos:station:DISL:MBLA:1,2010-02-03T00:10:00Z,30.4367,-88.0117,0.5,9.87,2 
DISL,ioos:station:DISL:MBLA:1,2010-02-03T00:12:00Z,30.4367,-88.0117,0.5,9.9,2 
DISL,ioos:station:DISL:MBLA:1,2010-02-03T00:15:00Z,30.4367,-88.0117,0.5,9.93,2 
DISL,ioos:station:DISL:MBLA:1,2010-02-03T01:03:00Z,30.4367,-88.0117,0.5,10.31,2 
DISL,ioos:station:DISL:MBLA:1,2010-02-03T01:05:00Z,30.4367,-88.0117,0.5,9.89,2 
DISL,ioos:station:DISL:MBLA:1,2010-02-03T01:07:00Z,30.4367,-88.0117,0.5,9.76,2 
DISL,ioos:station:DISL:MBLA:1,2010-02-03T01:10:00Z,30.4367,-88.0117,0.5,9.75,2 
DISL,ioos:station:DISL:MBLA:1,2010-02-03T01:12:00Z,30.4367,-88.0117,0.5,9.76,2 
DISL,ioos:station:DISL:MBLA:1,2010-02-03T01:15:00Z,30.4367,-88.0117,0.5,9.75,2 
DISL,ioos:station:DISL:MBLA:1,2010-02-03T02:03:00Z,30.4367,-88.0117,0.5,9.86,2 
DISL,ioos:station:DISL:MBLA:1,2010-02-03T02:05:00Z,30.4367,-88.0117,0.5,9.61,2 
DISL,ioos:station:DISL:MBLA:1,2010-02-03T02:07:00Z,30.4367,-88.0117,0.5,9.57,2 
DISL,ioos:station:DISL:MBLA:1,2010-02-03T02:10:00Z,30.4367,-88.0117,0.5,9.73,2 
DISL,ioos:station:DISL:MBLA:1,2010-02-03T02:12:00Z,30.4367,-88.0117,0.5,9.81,2 
DISL,ioos:station:DISL:MBLA:1,2010-02-03T02:15:00Z,30.4367,-88.0117,0.5,9.84,2 
DISL,ioos:station:DISL:MBLA:1,2010-02-03T03:03:00Z,30.4367,-88.0117,0.5,10.62,2 
DISL,ioos:station:DISL:MBLA:1,2010-02-03T16:53:00Z,30.4367,-88.0117,0.5,9.48,2 
DISL,ioos:station:DISL:MBLA:1,2010-02-03T17:03:00Z,30.4367,-88.0117,0.5,10.37,2 
DISL,ioos:station:DISL:MBLA:1,2010-02-03T17:05:00Z,30.4367,-88.0117,0.5,9.62,2 
DISL,ioos:station:DISL:MBLA:1,2010-02-03T17:07:00Z,30.4367,-88.0117,0.5,9.47,2 
DISL,ioos:station:DISL:MBLA:1,2010-02-03T17:10:00Z,30.4367,-88.0117,0.5,9.42,2 
DISL,ioos:station:DISL:MBLA:1,2010-02-03T17:12:00Z,30.4367,-88.0117,0.5,9.43,2 
DISL,ioos:station:DISL:MBLA:1,2010-02-03T17:15:00Z,30.4367,-88.0117,0.5,9.43,2 
DISL,ioos:station:DISL:MBLA:1,2010-02-03T18:03:00Z,30.4367,-88.0117,0.5,9.96,2 
DISL,ioos:station:DISL:MBLA:1,2010-02-03T18:05:00Z,30.4367,-88.0117,0.5,9.69,2 
DISL,ioos:station:DISL:MBLA:1,2010-02-03T18:08:00Z,30.4367,-88.0117,0.5,9.65,2 
DISL,ioos:station:DISL:MBLA:1,2010-02-03T18:10:00Z,30.4367,-88.0117,0.5,9.65,2 
DISL,ioos:station:DISL:MBLA:1,2010-02-03T18:12:00Z,30.4367,-88.0117,0.5,9.65,2 
DISL,ioos:station:DISL:MBLA:1,2010-02-03T18:15:00Z,30.4367,-88.0117,0.5,9.66,2 
DISL,ioos:station:DISL:MBLA:1,2010-02-03T19:03:00Z,30.4367,-88.0117,0.5,10.36,2 
DISL,ioos:station:DISL:MBLA:1,2010-02-03T19:05:00Z,30.4367,-88.0117,0.5,10.17,2 
DISL,ioos:station:DISL:MBLA:1,2010-02-03T19:07:00Z,30.4367,-88.0117,0.5,10.05,2 
DISL,ioos:station:DISL:MBLA:1,2010-02-03T19:10:00Z,30.4367,-88.0117,0.5,10.03,2 
DISL,ioos:station:DISL:MBLA:1,2010-02-03T19:12:00Z,30.4367,-88.0117,0.5,10.07,2 
DISL,ioos:station:DISL:MBLA:1,2010-02-03T19:15:00Z,30.4367,-88.0117,0.5,10.09,2 
DISL,ioos:station:DISL:MBLA:1,2010-02-03T20:03:00Z,30.4367,-88.0117,0.5,10.66,2 
DISL,ioos:station:DISL:MBLA:1,2010-02-03T20:05:00Z,30.4367,-88.0117,0.5,10.29,2 
DISL,ioos:station:DISL:MBLA:1,2010-02-03T20:07:00Z,30.4367,-88.0117,0.5,10.19,2 
DISL,ioos:station:DISL:MBLA:1,2010-02-03T20:10:00Z,30.4367,-88.0117,0.5,10.15,2 
DISL,ioos:station:DISL:MBLA:1,2010-02-03T20:13:00Z,30.4367,-88.0117,0.5,10.14,2 
DISL,ioos:station:DISL:MBLA:1,2010-02-03T20:15:00Z,30.4367,-88.0117,0.5,10.14,2 
DISL,ioos:station:DISL:MBLA:1,2010-02-03T21:03:00Z,30.4367,-88.0117,0.5,10.29,2 
DISL,ioos:station:DISL:MBLA:1,2010-02-03T21:05:00Z,30.4367,-88.0117,0.5,10.24,2 
DISL,ioos:station:DISL:MBLA:1,2010-02-03T21:07:00Z,30.4367,-88.0117,0.5,10.15,2 
DISL,ioos:station:DISL:MBLA:1,2010-02-03T21:10:00Z,30.4367,-88.0117,0.5,10.11,2 
DISL,ioos:station:DISL:MBLA:1,2010-02-03T21:13:00Z,30.4367,-88.0117,0.5,10.1,2 
DISL,ioos:station:DISL:MBLA:1,2010-02-03T21:15:00Z,30.4367,-88.0117,0.5,10.1,2 
DISL,ioos:station:DISL:MBLA:1,2010-02-03T22:03:00Z,30.4367,-88.0117,0.5,10.68,2 
DISL,ioos:station:DISL:MBLA:1,2010-02-03T22:05:00Z,30.4367,-88.0117,0.5,10.22,2 
DISL,ioos:station:DISL:MBLA:1,2010-02-03T22:07:00Z,30.4367,-88.0117,0.5,10.17,2 
DISL,ioos:station:DISL:MBLA:1,2010-02-03T22:10:00Z,30.4367,-88.0117,0.5,10.04,2 
DISL,ioos:station:DISL:MBLA:1,2010-02-03T22:12:00Z,30.4367,-88.0117,0.5,10.04,2 
DISL,ioos:station:DISL:MBLA:1,2010-02-03T22:15:00Z,30.4367,-88.0117,0.5,10.02,2 
DISL,ioos:station:DISL:MBLA:1,2010-02-03T23:02:00Z,30.4367,-88.0117,0.5,10.89,2 
DISL,ioos:station:DISL:MBLA:1,2010-02-03T23:05:00Z,30.4367,-88.0117,0.5,10.64,2 
DISL,ioos:station:DISL:MBLA:1,2010-02-03T23:07:00Z,30.4367,-88.0117,0.5,10.54,2 
DISL,ioos:station:DISL:MBLA:1,2010-02-03T23:10:00Z,30.4367,-88.0117,0.5,10.6,2 
DISL,ioos:station:DISL:MBLA:1,2010-02-03T23:12:00Z,30.4367,-88.0117,0.5,10.31,2 
DISL,ioos:station:DISL:MBLA:1,2010-02-03T23:15:00Z,30.4367,-88.0117,0.5,10.24,2 
DISL,ioos:station:DISL:MBLA:1,2010-02-10T00:03:00Z,30.4367,-88.0117,0.5,10.81,2 
DISL,ioos:station:DISL:MBLA:1,2010-02-10T00:05:00Z,30.4367,-88.0117,0.5,10.61,2 
DISL,ioos:station:DISL:MBLA:1,2010-02-10T00:08:00Z,30.4367,-88.0117,0.5,10.46,2 
DISL,ioos:station:DISL:MBLA:1,2010-02-10T00:10:00Z,30.4367,-88.0117,0.5,10.35,2 
DISL,ioos:station:DISL:MBLA:1,2010-02-10T00:13:00Z,30.4367,-88.0117,0.5,10.35,2 
DISL,ioos:station:DISL:MBLA:1,2010-02-10T00:15:00Z,30.4367,-88.0117,0.5,10.29,2 
DISL,ioos:station:DISL:MBLA:1,2010-02-10T01:03:00Z,30.4367,-88.0117,0.5,10.99,2 
DISL,ioos:station:DISL:MBLA:1,2010-02-10T01:05:00Z,30.4367,-88.0117,0.5,10.51,2 
DISL,ioos:station:DISL:MBLA:1,2010-02-10T01:08:00Z,30.4367,-88.0117,0.5,10.34,2 
DISL,ioos:station:DISL:MBLA:1,2010-02-10T01:10:00Z,30.4367,-88.0117,0.5,10.33,2 
DISL,ioos:station:DISL:MBLA:1,2010-02-10T01:13:00Z,30.4367,-88.0117,0.5,10.23,2 
DISL,ioos:station:DISL:MBLA:1,2010-02-10T01:15:00Z,30.4367,-88.0117,0.5,10.2,2 
DISL,ioos:station:DISL:MBLA:1,2010-02-10T02:03:00Z,30.4367,-88.0117,0.5,10.66,2 
DISL,ioos:station:DISL:MBLA:1,2010-02-10T02:05:00Z,30.4367,-88.0117,0.5,10.52,2 
DISL,ioos:station:DISL:MBLA:1,2010-02-10T02:08:00Z,30.4367,-88.0117,0.5,10.42,2 
DISL,ioos:station:DISL:MBLA:1,2010-02-10T02:10:00Z,30.4367,-88.0117,0.5,10.42,2 
DISL,ioos:station:DISL:MBLA:1,2010-02-10T02:12:00Z,30.4367,-88.0117,0.5,10.36,2 
DISL,ioos:station:DISL:MBLA:1,2010-02-10T02:15:00Z,30.4367,-88.0117,0.5,10.2,2 
DISL,ioos:station:DISL:MBLA:1,2010-02-10T03:03:00Z,30.4367,-88.0117,0.5,10.67,2 
DISL,ioos:station:DISL:MBLA:1,2010-02-10T03:05:00Z,30.4367,-88.0117,0.5,10.44,2 
DISL,ioos:station:DISL:MBLA:1,2010-02-10T03:07:00Z,30.4367,-88.0117,0.5,10.33,2 
DISL,ioos:station:DISL:MBLA:1,2010-02-10T03:10:00Z,30.4367,-88.0117,0.5,10.17,2 
DISL,ioos:station:DISL:MBLA:1,2010-02-10T03:12:00Z,30.4367,-88.0117,0.5,10.15,2 
DISL,ioos:station:DISL:MBLA:1,2010-02-10T03:15:00Z,30.4367,-88.0117,0.5,10.16,2 
DISL,ioos:station:DISL:MBLA:1,2010-02-10T04:03:00Z,30.4367,-88.0117,0.5,10.4,2 
DISL,ioos:station:DISL:MBLA:1,2010-02-10T04:05:00Z,30.4367,-88.0117,0.5,10.22,2 
DISL,ioos:station:DISL:MBLA:1,2010-02-10T04:08:00Z,30.4367,-88.0117,0.5,10.13,2 
DISL,ioos:station:DISL:MBLA:1,2010-02-10T04:10:00Z,30.4367,-88.0117,0.5,10.1,2 
DISL,ioos:station:DISL:MBLA:1,2010-02-10T04:13:00Z,30.4367,-88.0117,0.5,10.06,2 
DISL,ioos:station:DISL:MBLA:1,2010-02-10T04:15:00Z,30.4367,-88.0117,0.5,10.03,2 
DISL,ioos:station:DISL:MBLA:1,2010-02-10T05:03:00Z,30.4367,-88.0117,0.5,9.97,2 
DISL,ioos:station:DISL:MBLA:1,2010-02-10T05:05:00Z,30.4367,-88.0117,0.5,9.93,2 
DISL,ioos:station:DISL:MBLA:1,2010-02-10T05:08:00Z,30.4367,-88.0117,0.5,9.94,2 
DISL,ioos:station:DISL:MBLA:1,2010-02-10T05:11:00Z,30.4367,-88.0117,0.5,9.9,2 
DISL,ioos:station:DISL:MBLA:1,2010-02-10T05:14:00Z,30.4367,-88.0117,0.5,9.92,2 
DISL,ioos:station:DISL:MBLA:1,2010-02-10T05:16:00Z,30.4367,-88.0117,0.5,9.93,2 
DISL,ioos:station:DISL:MBLA:1,2010-02-10T06:03:00Z,30.4367,-88.0117,0.5,10.05,2 
DISL,ioos:station:DISL:MBLA:1,2010-02-10T06:06:00Z,30.4367,-88.0117,0.5,9.92,2 
DISL,ioos:station:DISL:MBLA:1,2010-02-10T06:08:00Z,30.4367,-88.0117,0.5,9.9,2 
DISL,ioos:station:DISL:MBLA:1,2010-02-10T06:11:00Z,30.4367,-88.0117,0.5,9.89,2 
DISL,ioos:station:DISL:MBLA:1,2010-02-10T06:13:00Z,30.4367,-88.0117,0.5,9.88,2 
DISL,ioos:station:DISL:MBLA:1,2010-02-10T06:16:00Z,30.4367,-88.0117,0.5,9.84,2 
DISL,ioos:station:DISL:MBLA:1,2010-02-10T07:03:00Z,30.4367,-88.0117,0.5,10.38,2 
DISL,ioos:station:DISL:MBLA:1,2010-02-10T07:05:00Z,30.4367,-88.0117,0.5,9.85,2 
DISL,ioos:station:DISL:MBLA:1,2010-02-10T07:07:00Z,30.4367,-88.0117,0.5,9.77,2 
DISL,ioos:station:DISL:MBLA:1,2010-02-10T07:10:00Z,30.4367,-88.0117,0.5,9.68,2 
DISL,ioos:station:DISL:MBLA:1,2010-02-10T07:13:00Z,30.4367,-88.0117,0.5,9.63,2 
DISL,ioos:station:DISL:MBLA:1,2010-02-10T07:15:00Z,30.4367,-88.0117,0.5,9.63,2 
DISL,ioos:station:DISL:MBLA:1,2010-02-10T08:03:00Z,30.4367,-88.0117,0.5,9.45,2 
DISL,ioos:station:DISL:MBLA:1,2010-02-10T08:05:00Z,30.4367,-88.0117,0.5,9.32,2 
DISL,ioos:station:DISL:MBLA:1,2010-02-10T08:08:00Z,30.4367,-88.0117,0.5,9.29,2 
DISL,ioos:station:DISL:MBLA:1,2010-02-10T08:10:00Z,30.4367,-88.0117,0.5,9.22,2 
DISL,ioos:station:DISL:MBLA:1,2010-02-10T08:13:00Z,30.4367,-88.0117,0.5,9.21,2 
DISL,ioos:station:DISL:MBLA:1,2010-02-10T08:16:00Z,30.4367,-88.0117,0.5,9.2,2 
DISL,ioos:station:DISL:MBLA:1,2010-02-10T09:02:00Z,30.4367,-88.0117,0.5,9.48,2 
DISL,ioos:station:DISL:MBLA:1,2010-02-10T09:05:00Z,30.4367,-88.0117,0.5,9.23,2 
DISL,ioos:station:DISL:MBLA:1,2010-02-10T09:08:00Z,30.4367,-88.0117,0.5,9.17,2 
DISL,ioos:station:DISL:MBLA:1,2010-02-10T09:10:00Z,30.4367,-88.0117,0.5,9.12,2 
DISL,ioos:station:DISL:MBLA:1,2010-02-10T09:13:00Z,30.4367,-88.0117,0.5,9.11,2 
DISL,ioos:station:DISL:MBLA:1,2010-02-10T09:16:00Z,30.4367,-88.0117,0.5,9.04,2 
DISL,ioos:station:DISL:MBLA:1,2010-02-10T10:03:00Z,30.4367,-88.0117,0.5,8.95,2 
DISL,ioos:station:DISL:MBLA:1,2010-02-10T10:05:00Z,30.4367,-88.0117,0.5,8.91,2 
DISL,ioos:station:DISL:MBLA:1,2010-02-10T10:08:00Z,30.4367,-88.0117,0.5,8.89,2 
DISL,ioos:station:DISL:MBLA:1,2010-02-10T10:10:00Z,30.4367,-88.0117,0.5,8.82,2 
DISL,ioos:station:DISL:MBLA:1,2010-02-10T10:15:00Z,30.4367,-88.0117,0.5,8.78,2 
DISL,ioos:station:DISL:MBLA:1,2010-02-10T10:17:00Z,30.4367,-88.0117,0.5,8.83,2 
DISL,ioos:station:DISL:MBLA:1,2010-02-10T11:03:00Z,30.4367,-88.0117,0.5,8.85,2 
DISL,ioos:station:DISL:MBLA:1,2010-02-10T11:05:00Z,30.4367,-88.0117,0.5,8.83,2 
DISL,ioos:station:DISL:MBLA:1,2010-02-10T11:08:00Z,30.4367,-88.0117,0.5,8.82,2 
DISL,ioos:station:DISL:MBLA:1,2010-02-10T11:10:00Z,30.4367,-88.0117,0.5,8.82,2 
DISL,ioos:station:DISL:MBLA:1,2010-02-10T11:13:00Z,30.4367,-88.0117,0.5,8.81,2 
DISL,ioos:station:DISL:MBLA:1,2010-02-10T11:15:00Z,30.4367,-88.0117,0.5,8.8,2 
DISL,ioos:station:DISL:MBLA:1,2010-02-10T12:03:00Z,30.4367,-88.0117,0.5,9.05,2 
DISL,ioos:station:DISL:MBLA:1,2010-02-10T12:05:00Z,30.4367,-88.0117,0.5,8.8,2 
DISL,ioos:station:DISL:MBLA:1,2010-02-10T12:08:00Z,30.4367,-88.0117,0.5,8.76,2 
DISL,ioos:station:DISL:MBLA:1,2010-02-10T12:10:00Z,30.4367,-88.0117,0.5,8.7,2 
DISL,ioos:station:DISL:MBLA:1,2010-02-10T12:13:00Z,30.4367,-88.0117,0.5,8.72,2 
DISL,ioos:station:DISL:MBLA:1,2010-02-10T12:15:00Z,30.4367,-88.0117,0.5,8.59,2 
DISL,ioos:station:DISL:MBLA:1,2010-02-10T13:03:00Z,30.4367,-88.0117,0.5,9.41,2 
DISL,ioos:station:DISL:MBLA:1,2010-02-10T13:05:00Z,30.4367,-88.0117,0.5,9.06,2 
DISL,ioos:station:DISL:MBLA:1,2010-02-10T13:07:00Z,30.4367,-88.0117,0.5,8.97,2 
DISL,ioos:station:DISL:MBLA:1,2010-02-10T13:10:00Z,30.4367,-88.0117,0.5,9.03,2 
DISL,ioos:station:DISL:MBLA:1,2010-02-10T13:13:00Z,30.4367,-88.0117,0.5,8.95,2 
DISL,ioos:station:DISL:MBLA:1,2010-02-10T13:15:00Z,30.4367,-88.0117,0.5,8.94,2 
DISL,ioos:station:DISL:MBLA:1,2010-02-10T14:03:00Z,30.4367,-88.0117,0.5,9.37,2 
DISL,ioos:station:DISL:MBLA:1,2010-02-10T14:05:00Z,30.4367,-88.0117,0.5,9.3,2 
DISL,ioos:station:DISL:MBLA:1,2010-02-10T14:08:00Z,30.4367,-88.0117,0.5,9.15,2 
DISL,ioos:station:DISL:MBLA:1,2010-02-10T14:11:00Z,30.4367,-88.0117,0.5,9.16,2 
DISL,ioos:station:DISL:MBLA:1,2010-02-10T14:14:00Z,30.4367,-88.0117,0.5,9.12,2 
DISL,ioos:station:DISL:MBLA:1,2010-02-10T14:17:00Z,30.4367,-88.0117,0.5,9.11,2 
DISL,ioos:station:DISL:MBLA:1,2010-02-10T15:03:00Z,30.4367,-88.0117,0.5,9.32,2 
DISL,ioos:station:DISL:MBLA:1,2010-02-10T15:06:00Z,30.4367,-88.0117,0.5,9.45,2 
DISL,ioos:station:DISL:MBLA:1,2010-02-10T15:08:00Z,30.4367,-88.0117,0.5,9.3,2 
DISL,ioos:station:DISL:MBLA:1,2010-02-10T15:11:00Z,30.4367,-88.0117,0.5,9.26,2 
DISL,ioos:station:DISL:MBLA:1,2010-02-10T15:14:00Z,30.4367,-88.0117,0.5,9.25,2 
DISL,ioos:station:DISL:MBLA:1,2010-02-10T15:17:00Z,30.4367,-88.0117,0.5,9.25,2 
DISL,ioos:station:DISL:MBLA:1,2010-02-10T16:03:00Z,30.4367,-88.0117,0.5,9.35,2 
DISL,ioos:station:DISL:MBLA:1,2010-02-10T16:05:00Z,30.4367,-88.0117,0.5,9.24,2 
DISL,ioos:station:DISL:MBLA:1,2010-02-10T16:08:00Z,30.4367,-88.0117,0.5,9.15,2 
DISL,ioos:station:DISL:MBLA:1,2010-02-10T16:10:00Z,30.4367,-88.0117,0.5,9.13,2 
DISL,ioos:station:DISL:MBLA:1,2010-02-10T16:13:00Z,30.4367,-88.0117,0.5,9.12,2 
DISL,ioos:station:DISL:MBLA:1,2010-02-10T16:15:00Z,30.4367,-88.0117,0.5,9.13,2 
DISL,ioos:station:DISL:MBLA:1,2010-02-10T17:02:00Z,30.4367,-88.0117,0.5,9.19,2 
DISL,ioos:station:DISL:MBLA:1,2010-02-10T17:05:00Z,30.4367,-88.0117,0.5,9.15,2 
DISL,ioos:station:DISL:MBLA:1,2010-02-10T17:07:00Z,30.4367,-88.0117,0.5,9.1,2 
DISL,ioos:station:DISL:MBLA:1,2010-02-10T17:10:00Z,30.4367,-88.0117,0.5,9.09,2 
DISL,ioos:station:DISL:MBLA:1,2010-02-10T17:12:00Z,30.4367,-88.0117,0.5,9.09,2 
DISL,ioos:station:DISL:MBLA:1,2010-02-10T17:15:00Z,30.4367,-88.0117,0.5,9.09,2 
DISL,ioos:station:DISL:MBLA:1,2010-02-10T18:03:00Z,30.4367,-88.0117,0.5,9.19,2 
DISL,ioos:station:DISL:MBLA:1,2010-02-10T18:05:00Z,30.4367,-88.0117,0.5,9.18,2 
DISL,ioos:station:DISL:MBLA:1,2010-02-10T18:07:00Z,30.4367,-88.0117,0.5,9.18,2 
DISL,ioos:station:DISL:MBLA:1,2010-02-10T18:10:00Z,30.4367,-88.0117,0.5,9.22,2 
DISL,ioos:station:DISL:MBLA:1,2010-02-10T18:13:00Z,30.4367,-88.0117,0.5,9.22,2 
DISL,ioos:station:DISL:MBLA:1,2010-02-10T18:16:00Z,30.4367,-88.0117,0.5,9.22,2 
DISL,ioos:station:DISL:MBLA:1,2010-02-10T19:03:00Z,30.4367,-88.0117,0.5,9.16,2 
DISL,ioos:station:DISL:MBLA:1,2010-02-10T19:05:00Z,30.4367,-88.0117,0.5,9.14,2 
DISL,ioos:station:DISL:MBLA:1,2010-02-10T19:07:00Z,30.4367,-88.0117,0.5,9.12,2 
DISL,ioos:station:DISL:MBLA:1,2010-02-10T19:10:00Z,30.4367,-88.0117,0.5,8.95,2 
DISL,ioos:station:DISL:MBLA:1,2010-02-10T19:12:00Z,30.4367,-88.0117,0.5,8.94,2 
DISL,ioos:station:DISL:MBLA:1,2010-02-10T19:15:00Z,30.4367,-88.0117,0.5,8.89,2 
DISL,ioos:station:DISL:MBLA:1,2010-02-10T20:02:00Z,30.4367,-88.0117,0.5,9.41,2 
DISL,ioos:station:DISL:MBLA:1,2010-02-10T20:05:00Z,30.4367,-88.0117,0.5,9.23,2 
DISL,ioos:station:DISL:MBLA:1,2010-02-10T20:07:00Z,30.4367,-88.0117,0.5,9.14,2 
DISL,ioos:station:DISL:MBLA:1,2010-02-10T20:10:00Z,30.4367,-88.0117,0.5,9.15,2 
DISL,ioos:station:DISL:MBLA:1,2010-02-10T20:12:00Z,30.4367,-88.0117,0.5,9.1,2 
DISL,ioos:station:DISL:MBLA:1,2010-02-10T20:15:00Z,30.4367,-88.0117,0.5,9.15,2 
DISL,ioos:station:DISL:MBLA:1,2010-02-10T21:03:00Z,30.4367,-88.0117,0.5,9.19,2 
DISL,ioos:station:DISL:MBLA:1,2010-02-10T21:05:00Z,30.4367,-88.0117,0.5,9.2,2 
DISL,ioos:station:DISL:MBLA:1,2010-02-10T21:07:00Z,30.4367,-88.0117,0.5,9.14,2 
DISL,ioos:station:DISL:MBLA:1,2010-02-10T21:10:00Z,30.4367,-88.0117,0.5,9.12,2 
DISL,ioos:station:DISL:MBLA:1,2010-02-10T21:13:00Z,30.4367,-88.0117,0.5,9.12,2 
DISL,ioos:station:DISL:MBLA:1,2010-02-10T21:15:00Z,30.4367,-88.0117,0.5,9.11,2 
DISL,ioos:station:DISL:MBLA:1,2010-02-10T22:02:00Z,30.4367,-88.0117,0.5,10.0,2 
DISL,ioos:station:DISL:MBLA:1,2010-02-10T22:05:00Z,30.4367,-88.0117,0.5,9.21,2 
DISL,ioos:station:DISL:MBLA:1,2010-02-10T22:07:00Z,30.4367,-88.0117,0.5,9.2,2 
DISL,ioos:station:DISL:MBLA:1,2010-02-10T22:10:00Z,30.4367,-88.0117,0.5,8.98,2 
DISL,ioos:station:DISL:MBLA:1,2010-02-10T22:12:00Z,30.4367,-88.0117,0.5,8.99,2 
DISL,ioos:station:DISL:MBLA:1,2010-02-10T22:15:00Z,30.4367,-88.0117,0.5,9.04,2 
DISL,ioos:station:DISL:MBLA:1,2010-02-10T23:02:00Z,30.4367,-88.0117,0.5,9.87,2 
DISL,ioos:station:DISL:MBLA:1,2010-02-10T23:05:00Z,30.4367,-88.0117,0.5,9.37,2 
DISL,ioos:station:DISL:MBLA:1,2010-02-10T23:07:00Z,30.4367,-88.0117,0.5,9.16,2 
DISL,ioos:station:DISL:MBLA:1,2010-02-10T23:10:00Z,30.4367,-88.0117,0.5,9.09,2 
DISL,ioos:station:DISL:MBLA:1,2010-02-10T23:12:00Z,30.4367,-88.0117,0.5,8.97,2 
DISL,ioos:station:DISL:MBLA:1,2010-02-10T23:15:00Z,30.4367,-88.0117,0.5,8.94,2 
DISL,ioos:station:DISL:MBLA:1,2010-02-11T00:03:00Z,30.4367,-88.0117,0.5,9.51,2 
DISL,ioos:station:DISL:MBLA:1,2010-02-11T00:05:00Z,30.4367,-88.0117,0.5,9.33,2 
DISL,ioos:station:DISL:MBLA:1,2010-02-11T00:07:00Z,30.4367,-88.0117,0.5,9.05,2 
DISL,ioos:station:DISL:MBLA:1,2010-02-11T00:10:00Z,30.4367,-88.0117,0.5,9.69,2 
DISL,ioos:station:DISL:MBLA:1,2010-02-11T00:12:00Z,30.4367,-88.0117,0.5,8.99,2 
DISL,ioos:station:DISL:MBLA:1,2010-02-11T00:15:00Z,30.4367,-88.0117,0.5,8.99,2 
DISL,ioos:station:DISL:MBLA:1,2010-02-11T01:03:00Z,30.4367,-88.0117,0.5,10.86,2 
DISL,ioos:station:DISL:MBLA:1,2010-02-11T01:05:00Z,30.4367,-88.0117,0.5,10.25,2 
DISL,ioos:station:DISL:MBLA:1,2010-02-11T01:07:00Z,30.4367,-88.0117,0.5,9.59,2 
DISL,ioos:station:DISL:MBLA:1,2010-02-11T01:10:00Z,30.4367,-88.0117,0.5,9.24,2 
DISL,ioos:station:DISL:MBLA:1,2010-02-11T01:13:00Z,30.4367,-88.0117,0.5,9.08,2 
DISL,ioos:station:DISL:MBLA:1,2010-02-11T01:15:00Z,30.4367,-88.0117,0.5,9.06,2 
DISL,ioos:station:DISL:MBLA:1,2010-02-11T02:03:00Z,30.4367,-88.0117,0.5,10.3,2 
DISL,ioos:station:DISL:MBLA:1,2010-02-11T02:05:00Z,30.4367,-88.0117,0.5,9.49,2 
DISL,ioos:station:DISL:MBLA:1,2010-02-11T02:08:00Z,30.4367,-88.0117,0.5,9.19,2 
DISL,ioos:station:DISL:MBLA:1,2010-02-11T02:10:00Z,30.4367,-88.0117,0.5,9.04,2 
DISL,ioos:station:DISL:MBLA:1,2010-02-11T02:13:00Z,30.4367,-88.0117,0.5,9.03,2 
DISL,ioos:station:DISL:MBLA:1,2010-02-11T02:15:00Z,30.4367,-88.0117,0.5,9.02,2 
DISL,ioos:station:DISL:MBLA:1,2010-02-11T03:03:00Z,30.4367,-88.0117,0.5,9.73,2 
DISL,ioos:station:DISL:MBLA:1,2010-02-11T03:05:00Z,30.4367,-88.0117,0.5,9.38,2 
DISL,ioos:station:DISL:MBLA:1,2010-02-11T03:08:00Z,30.4367,-88.0117,0.5,8.96,2 
DISL,ioos:station:DISL:MBLA:1,2010-02-11T03:10:00Z,30.4367,-88.0117,0.5,8.86,2 
DISL,ioos:station:DISL:MBLA:1,2010-02-11T03:13:00Z,30.4367,-88.0117,0.5,8.81,2 
DISL,ioos:station:DISL:MBLA:1,2010-02-11T03:15:00Z,30.4367,-88.0117,0.5,8.69,2 
DISL,ioos:station:DISL:MBLA:1,2010-02-11T04:03:00Z,30.4367,-88.0117,0.5,9.83,2 
DISL,ioos:station:DISL:MBLA:1,2010-02-11T04:05:00Z,30.4367,-88.0117,0.5,9.19,2 
DISL,ioos:station:DISL:MBLA:1,2010-02-11T04:07:00Z,30.4367,-88.0117,0.5,8.57,2 
DISL,ioos:station:DISL:MBLA:1,2010-02-11T04:10:00Z,30.4367,-88.0117,0.5,8.64,2 
DISL,ioos:station:DISL:MBLA:1,2010-02-11T04:12:00Z,30.4367,-88.0117,0.5,8.28,2 
DISL,ioos:station:DISL:MBLA:1,2010-02-11T04:15:00Z,30.4367,-88.0117,0.5,8.34,2 
DISL,ioos:station:DISL:MBLA:1,2010-02-11T05:03:00Z,30.4367,-88.0117,0.5,9.91,2 
DISL,ioos:station:DISL:MBLA:1,2010-02-11T05:05:00Z,30.4367,-88.0117,0.5,9.0,2 
DISL,ioos:station:DISL:MBLA:1,2010-02-11T05:08:00Z,30.4367,-88.0117,0.5,8.54,2 
DISL,ioos:station:DISL:MBLA:1,2010-02-11T05:10:00Z,30.4367,-88.0117,0.5,8.19,2 
DISL,ioos:station:DISL:MBLA:1,2010-02-11T05:13:00Z,30.4367,-88.0117,0.5,8.09,2 
DISL,ioos:station:DISL:MBLA:1,2010-02-11T05:15:00Z,30.4367,-88.0117,0.5,8.06,2 
DISL,ioos:station:DISL:MBLA:1,2010-02-11T06:03:00Z,30.4367,-88.0117,0.5,9.38,2 
DISL,ioos:station:DISL:MBLA:1,2010-02-11T06:05:00Z,30.4367,-88.0117,0.5,8.9,2 
DISL,ioos:station:DISL:MBLA:1,2010-02-11T06:07:00Z,30.4367,-88.0117,0.5,8.82,2 
DISL,ioos:station:DISL:MBLA:1,2010-02-11T06:10:00Z,30.4367,-88.0117,0.5,7.96,2 
DISL,ioos:station:DISL:MBLA:1,2010-02-11T06:12:00Z,30.4367,-88.0117,0.5,7.86,2 
DISL,ioos:station:DISL:MBLA:1,2010-02-11T06:15:00Z,30.4367,-88.0117,0.5,7.84,2 
DISL,ioos:station:DISL:MBLA:1,2010-02-11T07:03:00Z,30.4367,-88.0117,0.5,8.69,2 
DISL,ioos:station:DISL:MBLA:1,2010-02-11T07:05:00Z,30.4367,-88.0117,0.5,8.55,2 
DISL,ioos:station:DISL:MBLA:1,2010-02-11T07:07:00Z,30.4367,-88.0117,0.5,8.12,2 
DISL,ioos:station:DISL:MBLA:1,2010-02-11T07:10:00Z,30.4367,-88.0117,0.5,7.73,2 
DISL,ioos:station:DISL:MBLA:1,2010-02-11T07:12:00Z,30.4367,-88.0117,0.5,7.66,2 
DISL,ioos:station:DISL:MBLA:1,2010-02-11T07:15:00Z,30.4367,-88.0117,0.5,7.62,2 
DISL,ioos:station:DISL:MBLA:1,2010-02-11T08:03:00Z,30.4367,-88.0117,0.5,8.72,2 
DISL,ioos:station:DISL:MBLA:1,2010-02-11T08:05:00Z,30.4367,-88.0117,0.5,7.92,2 
DISL,ioos:station:DISL:MBLA:1,2010-02-11T08:08:00Z,30.4367,-88.0117,0.5,7.66,2 
DISL,ioos:station:DISL:MBLA:1,2010-02-11T08:10:00Z,30.4367,-88.0117,0.5,7.63,2 
DISL,ioos:station:DISL:MBLA:1,2010-02-11T08:13:00Z,30.4367,-88.0117,0.5,7.5,2 
DISL,ioos:station:DISL:MBLA:1,2010-02-11T08:15:00Z,30.4367,-88.0117,0.5,7.49,2 
DISL,ioos:station:DISL:MBLA:1,2010-02-11T09:03:00Z,30.4367,-88.0117,0.5,7.67,2 
DISL,ioos:station:DISL:MBLA:1,2010-02-11T09:05:00Z,30.4367,-88.0117,0.5,7.59,2 
DISL,ioos:station:DISL:MBLA:1,2010-02-11T09:08:00Z,30.4367,-88.0117,0.5,7.47,2 
DISL,ioos:station:DISL:MBLA:1,2010-02-11T09:10:00Z,30.4367,-88.0117,0.5,7.4,2 
DISL,ioos:station:DISL:MBLA:1,2010-02-11T09:12:00Z,30.4367,-88.0117,0.5,7.34,2 
DISL,ioos:station:DISL:MBLA:1,2010-02-11T09:15:00Z,30.4367,-88.0117,0.5,7.32,2 
DISL,ioos:station:DISL:MBLA:1,2010-02-11T10:03:00Z,30.4367,-88.0117,0.5,7.26,2 
DISL,ioos:station:DISL:MBLA:1,2010-02-11T10:05:00Z,30.4367,-88.0117,0.5,7.22,2 
DISL,ioos:station:DISL:MBLA:1,2010-02-11T10:08:00Z,30.4367,-88.0117,0.5,7.17,2 
DISL,ioos:station:DISL:MBLA:1,2010-02-11T10:10:00Z,30.4367,-88.0117,0.5,7.16,2 
DISL,ioos:station:DISL:MBLA:1,2010-02-11T10:13:00Z,30.4367,-88.0117,0.5,7.26,2 
DISL,ioos:station:DISL:MBLA:1,2010-02-11T10:15:00Z,30.4367,-88.0117,0.5,7.27,2 
DISL,ioos:station:DISL:MBLA:1,2010-02-11T11:03:00Z,30.4367,-88.0117,0.5,8.44,2 
DISL,ioos:station:DISL:MBLA:1,2010-02-11T11:05:00Z,30.4367,-88.0117,0.5,7.85,2 
DISL,ioos:station:DISL:MBLA:1,2010-02-11T11:08:00Z,30.4367,-88.0117,0.5,7.82,2 
DISL,ioos:station:DISL:MBLA:1,2010-02-11T11:10:00Z,30.4367,-88.0117,0.5,7.79,2 
DISL,ioos:station:DISL:MBLA:1,2010-02-11T11:13:00Z,30.4367,-88.0117,0.5,7.75,2 
DISL,ioos:station:DISL:MBLA:1,2010-02-11T11:15:00Z,30.4367,-88.0117,0.5,7.74,2 
DISL,ioos:station:DISL:MBLA:1,2010-02-11T12:03:00Z,30.4367,-88.0117,0.5,8.13,2 
DISL,ioos:station:DISL:MBLA:1,2010-02-11T12:05:00Z,30.4367,-88.0117,0.5,7.98,2 
DISL,ioos:station:DISL:MBLA:1,2010-02-11T12:07:00Z,30.4367,-88.0117,0.5,7.82,2 
DISL,ioos:station:DISL:MBLA:1,2010-02-11T12:10:00Z,30.4367,-88.0117,0.5,7.76,2 
DISL,ioos:station:DISL:MBLA:1,2010-02-11T12:12:00Z,30.4367,-88.0117,0.5,7.73,2 
DISL,ioos:station:DISL:MBLA:1,2010-02-11T12:15:00Z,30.4367,-88.0117,0.5,7.72,2 
DISL,ioos:station:DISL:MBLA:1,2010-02-11T13:03:00Z,30.4367,-88.0117,0.5,8.59,2 
DISL,ioos:station:DISL:MBLA:1,2010-02-11T13:05:00Z,30.4367,-88.0117,0.5,8.1,2 
DISL,ioos:station:DISL:MBLA:1,2010-02-11T13:08:00Z,30.4367,-88.0117,0.5,7.74,2 
DISL,ioos:station:DISL:MBLA:1,2010-02-11T13:10:00Z,30.4367,-88.0117,0.5,7.64,2 
DISL,ioos:station:DISL:MBLA:1,2010-02-11T13:13:00Z,30.4367,-88.0117,0.5,7.55,2 
DISL,ioos:station:DISL:MBLA:1,2010-02-11T13:15:00Z,30.4367,-88.0117,0.5,7.54,2 
DISL,ioos:station:DISL:MBLA:1,2010-02-11T14:03:00Z,30.4367,-88.0117,0.5,8.94,2 
DISL,ioos:station:DISL:MBLA:1,2010-02-11T14:05:00Z,30.4367,-88.0117,0.5,8.44,2 
DISL,ioos:station:DISL:MBLA:1,2010-02-11T14:08:00Z,30.4367,-88.0117,0.5,8.27,2 
DISL,ioos:station:DISL:MBLA:1,2010-02-11T14:10:00Z,30.4367,-88.0117,0.5,7.87,2 
DISL,ioos:station:DISL:MBLA:1,2010-02-11T14:12:00Z,30.4367,-88.0117,0.5,7.61,2 
DISL,ioos:station:DISL:MBLA:1,2010-02-11T14:15:00Z,30.4367,-88.0117,0.5,7.55,2 
DISL,ioos:station:DISL:MBLA:1,2010-02-11T15:03:00Z,30.4367,-88.0117,0.5,8.91,2 
DISL,ioos:station:DISL:MBLA:1,2010-02-11T15:05:00Z,30.4367,-88.0117,0.5,8.44,2 